Regional Weather Roundup
Issued by NWS Grand Forks, ND

Home | Current Version | Previous Version | Text Only | Print | Product List | Glossary Off
Versions: 1 2 3 4 5 6 7 8 9 10 11 12 13 14 15 16 17 18 19 20 21 22 23 24 25 26 27 28 29 30 31 32 33 34 35 36 37 38 39 40 41 42 43 44 45 46 47 48 49 50

083
ASUS43 KFGF 191631
RWRFGF
PRAIRIE TO PINES  WEATHER ROUNDUP
NATIONAL WEATHER SERVICE EASTERN NORTH DAKOTA/GRAND FORKS ND
1000 AM CST SUN FEB 19 2017

 **SATELLITE DATA USED TO AUGMENT SKY COVER AT AUTOMATED STATIONS**
 *****  WEATHER ACROSS EASTERN NORTH DAKOTA  *****

CITY           SKY/WX    TMP DP  RH WIND       PRES   REMARKS
GRAND FORKS    CLOUDY    39  31  72 SE15      29.75F
GRAND FRKS AFB FAIR      37  34  89 S7        29.75F
DEVILS LAKE    PTSUNNY   36  33  89 E17       29.68F
FARGO          FAIR      46  39  76 SE15      29.75F
WAHPETON ARPT  FAIR      41  36  81 SE16      29.76F
$$

 ***** WEATHER ACROSS CENTRAL AND WESTERN NORTH DAKOTA  *****

CITY           SKY/WX    TMP DP  RH WIND       PRES   REMARKS
BISMARCK       FAIR      37  33  85 NE5       29.58F
MINOT          CLOUDY    35  33  92 E9        29.59F
JAMESTOWN      PTSUNNY   38  34  85 SE12      29.66F
MINOT AFB      CLOUDY    34  32  91 E12       29.59F
GARRISON       NOT AVBL
WILLISTON      CLOUDY    34  30  85 E8        29.54F FOG
DICKINSON      FAIR      32  32 100 E8        29.48F WCI  25
HETTINGER      FAIR      38  32  79 CALM      29.53F
$$

 *****  OTHER AIRPORT OBSERVATIONS IN OUR AREA  *****

CITY           SKY/WX    TMP DP  RH WIND       PRES   REMARKS
WALHALLA       NOT AVBL
GRAFTON AIRPOR FAIR      34  34 100 E10       29.79F
VALLEY CITY AR MIX PCPN  37  37 100 SE14      29.71F
CANDO          NOT AVBL
CAVALIER APRT  PTSUNNY   34  32  93 E6        29.79F
GWINNER        FAIR      39  37  93 SE13      29.72S
SHEYENNE NWR     N/A     39  36  89 SE9       29.95S
ROLLA          PTSUNNY   32  32 100 E12       29.70F WCI  23
 ***** THE ABOVE OBSERVATIONS ARE NON NWS ARE NOT QUALITY
       CONTROLLED AND MAY MIS-REPORT RAIN FOR SNOW...
$$

  *****  WEATHER ACROSS NORTHERN MINNESOTA  *****

CITY           SKY/WX    TMP DP  RH WIND       PRES   REMARKS
FLAG ISLAND    FAIR      34  28  80 E8        29.90S
WARROAD        FAIR      34  30  86 E7        29.88F
ROSEAU         FAIR      37  30  75 E9        29.85F
HALLOCK        PTSUNNY   37  32  81 E15       29.79F
THF RVR FALLS  FAIR      36  32  85 E15       29.81F
BAUDETTE       FAIR      35  29  78 SE10      29.89S
WASKISH        FAIR      43  30  61 SE9       29.89S
CROOKSTON      FAIR      41  36  81 SE15      29.78F
STEPHEN NDAWN    N/A     37  34  87 SE14        N/A
GREENBUSH NDAW   N/A     36  30  80 E12         N/A
$$
  *****  WEATHER ACROSS CENTRAL AND WEST MINNESOTA  *****

CITY           SKY/WX    TMP DP  RH WIND       PRES   REMARKS
FOSSTON        FAIR      41  34  75 SE10      29.82S
BEMIDJI        PTSUNNY   37  32  82 SE9       29.87F
PARK RAPIDS    FAIR      42  31  64 SE12      29.87S
ELBOW LAKE     FAIR      47  39  73 E14G21    29.79F
WADENA         FAIR      39  36  87 E10       29.85F
DETROIT LAKES  FAIR      41  36  81 SE14      29.82S
MOORHEAD       FAIR      45  39  81 SE14      29.76F
FERGUS FALLS   FAIR      46  37  71 SE13      29.82F
MORRIS MN      FAIR      46  41  81 SE16      29.78F
STAPLES        FAIR      39  36  87 SE7       29.87F
$$
  *****  WEATHER ELSEWHERE ACROSS MINNESOTA  *****

CITY           SKY/WX    TMP DP  RH WIND       PRES   REMARKS
DULUTH         FAIR      39  32  76 SE10      29.96S
INTRNTL FALLS  PTSUNNY   35  29  78 SE8       29.94S
ELY            FAIR      36  30  80 SE6       29.96F
CLOQUET        FAIR      43  28  56 E9        29.96S
WHEATON        FAIR      43  37  81 SE15      29.78S
BRAINERD       FAIR      41  34  76 SE7       29.91F
HIBBING        FAIR      35  32  88 SE7       29.95F
ALEXANDRIA     FAIR      42  38  85 SE13      29.85S
SAINT CLOUD    FAIR      44  40  85 E6        29.91F
MINNEAPOLIS    PTSUNNY   46  37  71 SE7       29.95F
$$

  *****  WEATHER ACROSS SOUTH DAKOTA  *****

CITY           SKY/WX    TMP DP  RH WIND       PRES   REMARKS
SIOUX FALLS    CLOUDY    49  40  71 S13G18    29.79S
BROOKINGS      FAIR      46  38  73 SE14      29.75F
WATERTOWN      FAIR      43  37  79 S8        29.74R
HURON          FAIR      46  38  73 SE16      29.69F
SISSETON         N/A     37  37 100 S8        29.75S
ABERDEEN       FAIR      45  36  70 SE18G28   29.67F
MITCHELL       FAIR      46  39  76 SE13      29.72S
PIERRE         FAIR      47  36  65 SE10      29.58F
MOBRIDGE       FAIR      41  33  73 SE8       29.54F
RAPID CITY     FAIR      43  31  62 SE5       29.55S
$$

  *****  SOME WEATHER IN NEARBY STATES *****

CITY           SKY/WX    TMP DP  RH WIND       PRES   REMARKS
GLASGOW MT     CLOUDY    31  30  96 SE13G23   29.46S FOG     WCI  21
GREAT FALLS MT CLOUDY    45  33  63 SW17      29.41R
CHEYENNE WY    FAIR      45  25  45 S6        29.70R
SCOTTSBLUFF NE FAIR      38  29  70 CALM      29.67R
OMAHA NE       PTSUNNY   54  45  71 S13       29.90R
DES MOINES IA  FAIR      55  41  59 S13       29.97S
DAVENPORT IA   FAIR      53  41  63 S6        30.05R
CHICAGO IL     FAIR      57  33  40 E3        30.05R
EAU CLAIRE WI  FAIR      44  35  70 CALM      30.00S
LA CROSSE WI   FAIR      41  33  73 SE5       30.03R
$$

  *****  SOME NATIONAL WEATHER *****

CITY           SKY/WX    TMP DP  RH WIND       PRES   REMARKS
LA GUARDIA NY  PTSUNNY   59  36  42 NW14      29.80F
RALEIGH NC     FAIR      65  41  41 N8        29.98S
ATLANTA GA     PTSUNNY   62  52  69 N13       30.11R
NEW ORLEANS LA PTSUNNY   67  64  90 NE7       30.09R
OKLAHOMA CITY  CLOUDY    59  58  96 S17G24    29.93R FOG
ALBUQUERQUE NM DRIZZLE   41  38  89 S10       29.89S
SALT LAKE CITY LGT RAIN  44  41  89 E10       29.66F
LOS ANGELES CA CLOUDY    54  52  93 E3        29.90R
BOISE ID       CLOUDY    41  36  82 SE9       29.61R
SEATTLE WA     CLOUDY    41  40  96 S7        29.42R
$$

*** WEATHER ACROSS MANITOBA...SASKATCHEWAN AND ONTARIO ***
                ***ONTARIO***

CITY           SKY/WX    TMP DP  RH WIND       PRES   REMARKS
GERALDTON      CLOUDY    32  25  74 N7        29.99R
THUNDER BAY    MOSUNNY   39  28  65 S3        30.02R
SIOUX LOOKOUT  MOSUNNY   34  25  69 S3        29.97R
TORONTO        MOSUNNY   50  36  57 W15       29.88R
BIG TROUT LK   CLOUDY    21  19  93 E3        30.03R
PICKLE LAKE    CLOUDY    27  21  80 NW3       29.98R
DRYDEN         CLOUDY    32  27  80 E3        29.95S
KENORA         PTSUNNY   30  27  86 E9        29.92S WCI  22
$$
                *** MANITOBA***

CITY           SKY/WX    TMP DP  RH WIND       PRES   REMARKS
BRANDON        PTSUNNY   30  27  86 E24G31    29.76F WCI  16
DAUPHIN        CLOUDY    28  27  93 E15       29.85F WCI  17
ISLAND LAKE    CLOUDY    18  14  86 S2        30.03R
PILOT MOUND      N/A     34  28  80 E18G25      N/A  WCI  23
THE PAS        CLOUDY    28  25  86 E6        29.91F WCI  22
THOMPSON       CLOUDY    19  16  86 E2        30.00S
WINNIPEG       PTSUNNY   34  28  80 E10       29.87F
LYNN LAKE      CLOUDY    16  16 100 SE3       29.95R
CHURCHILL      CLOUDY     1   0  92 S5        30.09R WCI  -8
GILLAM         FLURRIES  16  10  79 VRB2      30.05R
$$
                ***SASKATCHEWAN***

CITY           SKY/WX    TMP DP  RH WIND       PRES   REMARKS
ESTEVAN        CLOUDY    32  30  93 E22G30    29.59F WCI  19
KINDERSLEY     PTSUNNY   32  30  93 SE17      29.40S WCI  21
LLOYDMINSTER   FLURRIES  32  30  93 SE20G29   29.43F WCI  20
PRINCE ALBERT  CLOUDY    30  27  86 E15       29.67F WCI  19
REGINA         CLOUDY    34  28  80 E20G30    29.58F WCI  22
YORKTON        MOSUNNY   32  28  86 E14G21    29.73S WCI  22
N. BATTLEFORD  CLOUDY    34  32  93 E29G37    29.49F WCI  20
LA RONGE       CLOUDY    23  21  93 E8        29.81S WCI  14
SASKATOON      CLOUDY    34  28  80 E21       29.57F WCI  22
SWIFT CURRENT  MOSUNNY   32  32 100 SE16G22   29.41S WCI  21
$$
NOTE: THESE ARE AUTOMATED STATIONS WITH LIMITED QUALITY CONTROL
      "FAIR" INDICATES FEW OR NO CLOUDS BELOW 12,000 FEET WITH NO
      SIGNIFICANT WEATHER AND/OR OBSTRUCTIONS TO VISIBILITY.
      SKY/WX - SKY CONDITION AND SIGNIFICANT WEATHER.
      TMP - AIR TEMPERATURE.    DP   - DEWPOINT TEMPERATURE.
      RH  - RELATIVE HUMIDITY.  PRES - PRESSURE.
      HX  - HEAT INDEX.         WCI  - WIND CHILL INDEX.
$




USA.gov is the U.S. government's official web portal to all federal, state and local government web resources and services.